This is the latest recevied weather packets stored in our database for station/object WA9NNN-10. If no packets are shown the sender has not sent any weather packets the latest 1 day(s).
| Time | Temp. | Humidity | Pressure | Rain* | Wind** | Luminosity | Snow |
|---|---|---|---|---|---|---|---|
| 1777984898 | 8.89° C | 70% | 1008.1 hPa | 0.76 mm | 0 m/s | - | - |
| 1777984597 | 8.89° C | 69% | 1008.4 hPa | 0.76 mm | 0 m/s | - | - |
| 1777984297 | 8.89° C | 68% | 1008.4 hPa | 0.76 mm | 0.89 m/s, 1° | - | - |
| 1777983997 | 9.44° C | 67% | 1008.3 hPa | 0.76 mm | 0.45 m/s, 1° | - | - |
| 1777983698 | 9.44° C | 66% | 1008.6 hPa | 0.51 mm | 0.89 m/s, 333° | - | - |
| 1777983397 | 9.44° C | 64% | 1008.7 hPa | 0.51 mm | 0.89 m/s, 289° | - | - |
| 1777983097 | 9.44° C | 63% | 1008.8 hPa | 0.25 mm | 1.79 m/s, 301° | - | - |
| 1777982797 | 10° C | 61% | 1008.5 hPa | 0.25 mm | 2.24 m/s, 340° | - | - |
| 1777982497 | 10° C | 60% | 1008.3 hPa | 0 mm | 0.45 m/s, 309° | - | - |
| 1777982197 | 10.56° C | 58% | 1008.2 hPa | 0 mm | 0.89 m/s, 315° | - | - |
| 1777981897 | 10.56° C | 56% | 1007.8 hPa | 0 mm | 0.89 m/s, 359° | - | - |
| 1777981597 | 10.56° C | 54% | 1007.8 hPa | 0 mm | 2.24 m/s, 311° | - | - |
| 1777981297 | 10.56° C | 52% | 1007.8 hPa | 0 mm | 0.45 m/s, 356° | - | - |
| 1777980997 | 10.56° C | 51% | 1007.5 hPa | 0 mm | 0.89 m/s, 310° | - | - |
| 1777980697 | 10.56° C | 51% | 1007.2 hPa | 0 mm | 3.58 m/s, 358° | - | - |
| 1777980397 | 11.11° C | 52% | 1006.9 hPa | 0 mm | 0.89 m/s, 359° | - | - |
| 1777980097 | 11.11° C | 53% | 1006.5 hPa | 0 mm | 2.24 m/s, 339° | - | - |
| 1777979797 | 11.11° C | 55% | 1006.4 hPa | 0 mm | 3.58 m/s, 316° | - | - |
| 1777979497 | 11.11° C | 56% | 1006.3 hPa | 0 mm | 0.45 m/s, 355° | - | - |
| 1777979197 | 11.11° C | 56% | 1007 hPa | 0 mm | 0.89 m/s, 300° | - | - |
| 1777978898 | 11.11° C | 58% | 1006.9 hPa | 0 mm | 0.45 m/s, 314° | - | - |
| 1777978597 | 11.11° C | 59% | 1006.5 hPa | 0 mm | 0.89 m/s, 5° | - | - |
| 1777978297 | 11.67° C | 58% | 1006.8 hPa | 0 mm | 2.24 m/s, 352° | - | - |
| 1777977997 | 11.67° C | 58% | 1007.1 hPa | 0 mm | 2.24 m/s, 1° | - | - |
| 1777977698 | 11.67° C | 58% | 1006.5 hPa | 0 mm | 1.34 m/s, 324° | - | - |
* Rain latest hour (hover to see other rain measurements)
** Current wind speed in m/s (hover to see current wind gust speed)